Regional Weather Roundup
Issued by NWS Burlington, VT

Current Version | Previous Version | Text Only | Print | Product List | Glossary On
Versions: 1 2 3 4 5 6 7 8 9 10 11 12 13 14 15 16 17 18 19 20 21 22 23 24 25 26 27 28 29 30 31 32 33 34 35 36 37 38 39 40 41 42 43 44 45 46 47 48 49 50
414 ASUS41 KBTV 242210 RWRBTV VERMONT REGIONAL WEATHER ROUNDUP NATIONAL WEATHER SERVICE BURLINGTON VT 500 PM EST FRI FEB 24 2017 NOTE: "FAIR" INDICATES FEW OR NO CLOUDS BELOW 12,000 FEET WITH NO SIGNIFICANT WEATHER AND/OR OBSTRUCTIONS TO VISIBILITY. * THESE REPORTS ARE NOT UNDER NWS QUALITY CONTROL AND/OR DO NOT REPORT WEATHER SUCH AS PRECIPITATION AND FOG. VTZ001>019-242300- _____VERMONT_____ CITY SKY/WX TMP DP RH WIND PRES REMARKS BURLINGTON CLOUDY 42 38 85 CALM 29.81F MONTPELIER FOG 48 48 100 CALM 29.84R VSB 3/4 MORRISVILLE CLOUDY 40 40 100 N3 29.82R ST. JOHNSBURY* N/A 45 45 100 MISG 29.80S LYNDONVILLE* LGT RAIN 48 47 97 SE5 29.83S VSB<1/4 MIDDLEBURY* FOG N/A N/A N/A N6 29.82R VSB 1/4 RUTLAND* CLEAR 56 49 77 CALM 29.79S SPRINGFIELD CLEAR 48 41 76 CALM 29.81S HIGHGATE* CLOUDY 38 38 97 NE5 29.82F NEWPORT* CLOUDY 39 37 92 N7 29.83S BENNINGTON CLEAR 69 48 47 S8 29.78F SUTTON* N/A 43 N/A N/A MISG N/A _____LAKE CHAMPLAIN_____ CITY SKY/WX TMP DP RH WIND PRES REMARKS BURTON ISLAND* N/A 36 36 100 N2 N/A COLCHESTER RF* N/A 39 39 100 N10 N/A DIAMOND ISL* N/A 41 37 87 N14 N/A $$ NYZ007-026>031-035-052-083-087-242300- _____NORTHERN NEW YORK_____ CITY SKY/WX TMP DP RH WIND PRES REMARKS PLATTSBURGH CLOUDY 41 38 89 N8 29.82F SARANAC LAKE CLOUDY 41 41 100 NE8 29.74S MASSENA CLOUDY 37 36 96 NE12 29.79F WCI 29 OGDENSBURG* DRIZZLE 39 37 93 NE7 29.76S POTSDAM* CLOUDY N/A N/A N/A E7 29.74F FOG WATERTOWN MOCLDY 43 41 93 NE12 29.70F FT DRUM MOCLDY 43 41 93 NE5 29.70F ALBANY MOCLDY 72 49 44 S15G24 29.76S GLENS FALLS CLEAR 56 45 66 N7 29.78S $$ NHZ002-005-011-242300- _____NEW HAMPSHIRE_____ CITY SKY/WX TMP DP RH WIND PRES REMARKS LEBANON CLEAR 44 42 93 CALM 29.80F FOG KEENE CLEAR 65 51 60 S12 29.81S MT WASHINGTON FOG 41 41 100 W63G69 N/A VSB 0 WCI 26 PLYMOUTH MOCLDY 44 42 95 CALM 29.83S FOG WHITEFIELD FOG 44 42 93 CALM 29.81S VSB<1/4 $$ _____REGIONAL QUEBEC LOCATIONS_____ CITY SKY/WX TMP DP RH WIND PRES REMARKS MONTREAL LGT RAIN 36 34 93 NE14G23 29.84S FOG WCI 27 QUEBEC CITY LGT RAIN 37 32 81 VRB2 29.89S SHERBROOKE CLOUDY 39 39 100 NE6 29.82S _____REGIONAL ONTARIO LOCATIONS_____ CITY SKY/WX TMP DP RH WIND PRES REMARKS OTTAWA LGT RAIN 36 34 93 NE8G17 29.80S FOG WCI 29 ______KEY______ VSB - VISIBILITY IN MILES WCI - WIND CHILL INDEX HX - HEAT INDEX $$ NNNN

USA.gov is the U.S. government's official web portal to all federal, state and local government web resources and services.